,,,PA_Meas_PMT16A,,PR_Meas_QMR101_102,,RH_Meas_QMH101,,SR_Meas_QMS101,,TA_Meas_QMH101,,GenWind,,GenWind,
date,time,status,PA,status,PR,status,RH,status,SR,status,TA,status,DirAvg,status,SpdAvg,
2009-07-18, 00:00:05,VALID,1005.72,VALID,0,VALID,84.8026,VALID,0,VALID,25.1034,VALID,6,VALID,0.254297,
2009-07-18, 00:01:05,VALID,1005.72,VALID,0,VALID,84.8789,VALID,0,VALID,25.0644,VALID,6,VALID,0.189453,
2009-07-18, 00:02:05,VALID,1005.7,VALID,0,VALID,84.6272,VALID,0,VALID,25.0858,VALID,7,VALID,0.166797,
2009-07-18, 00:03:05,VALID,1005.71,VALID,0,VALID,84.4975,VALID,0.100563,VALID,25.0236,VALID,33,VALID,0.455469,
2009-07-18, 00:04:05,VALID,1005.69,VALID,0,VALID,85.0849,VALID,0,VALID,25.0663,VALID,46,VALID,0.382031,
2009-07-18, 00:05:05,VALID,1005.69,VALID,0,VALID,85.6571,VALID,0,VALID,25.0255,VALID,46,VALID,0.218359,
2009-07-18, 00:06:05,VALID,1005.71,VALID,0,VALID,85.6113,VALID,0,VALID,25.0079,VALID,46,VALID,0.201953,
2009-07-18, 00:07:05,VALID,1005.66,VALID,0,VALID,86.3894,VALID,0,VALID,24.9671,VALID,46,VALID,0.471484,
2009-07-18, 00:08:05,VALID,1005.71,VALID,0,VALID,86.9006,VALID,0,VALID,24.9087,VALID,46,VALID,0.433203,
2009-07-18, 00:09:05,VALID,1005.68,VALID,0,VALID,86.9921,VALID,0.100563,VALID,24.8503,VALID,16,VALID,0.399609,
2009-07-18, 00:10:05,VALID,1005.71,VALID,0,VALID,87.5109,VALID,0,VALID,24.8327,VALID,16,VALID,0.274219,
2009-07-18, 00:11:05,VALID,1005.68,VALID,0,VALID,87.1447,VALID,0,VALID,24.7724,VALID,16,VALID,0.434766,
2009-07-18, 00:12:05,VALID,1005.69,VALID,0,VALID,87.1218,VALID,0.100563,VALID,24.7529,VALID,16,VALID,0.363672,
2009-07-18, 00:13:05,VALID,1005.68,VALID,0,VALID,87.8618,VALID,0,VALID,24.7956,VALID,16,VALID,0.400391,
2009-07-18, 00:14:05,VALID,1005.69,VALID,0,VALID,88.1136,VALID,0,VALID,24.7177,VALID,16,VALID,0.274609,
2009-07-18, 00:15:05,VALID,1005.69,VALID,0,VALID,87.7092,VALID,0,VALID,24.6769,VALID,59,VALID,0.464844,
2009-07-18, 00:16:05,VALID,1005.7,VALID,0,VALID,87.8847,VALID,0,VALID,24.7372,VALID,57,VALID,0.388672,
2009-07-18, 00:17:05,VALID,1005.67,VALID,0,VALID,88.3882,VALID,0,VALID,24.7159,VALID,44,VALID,0.289844,
2009-07-18, 00:18:05,VALID,1005.67,VALID,0,VALID,88.3424,VALID,0,VALID,24.6769,VALID,41,VALID,0.464844,
2009-07-18, 00:19:05,VALID,1005.67,VALID,0,VALID,88.0525,VALID,0,VALID,24.6769,VALID,54,VALID,0.399219,
2009-07-18, 00:20:05,VALID,1005.67,VALID,0,VALID,87.9686,VALID,0,VALID,24.7159,VALID,48,VALID,0.347266,
2009-07-18, 00:21:05,VALID,1005.65,VALID,0,VALID,88.1212,VALID,0,VALID,24.7353,VALID,47,VALID,0.379297,
2009-07-18, 00:22:05,VALID,1005.65,VALID,0,VALID,87.8389,VALID,0,VALID,24.7372,VALID,41,VALID,0.383984,
2009-07-18, 00:23:05,VALID,1005.67,VALID,0,VALID,87.4422,VALID,0,VALID,24.7567,VALID,41,VALID,0.367188,
2009-07-18, 00:24:05,VALID,1005.66,VALID,0,VALID,87.4804,VALID,0,VALID,24.7956,VALID,41,VALID,0.246875,
2009-07-18, 00:25:05,VALID,1005.63,VALID,0,VALID,87.3049,VALID,0,VALID,24.7937,VALID,37,VALID,0.41875,
2009-07-18, 00:26:05,VALID,1005.66,VALID,0,VALID,87.0608,VALID,0,VALID,24.8151,VALID,36,VALID,0.217187,
2009-07-18, 00:27:05,VALID,1005.61,VALID,0,VALID,87.0074,VALID,0,VALID,24.8522,VALID,36,VALID,0.286719,
2009-07-18, 00:28:05,VALID,1005.61,VALID,0,VALID,86.9311,VALID,0,VALID,24.8522,VALID,36,VALID,0.199609,
2009-07-18, 00:29:05,VALID,1005.59,VALID,0,VALID,86.8395,VALID,0,VALID,24.8327,VALID,37,VALID,0.313672,
2009-07-18, 00:30:05,VALID,1005.61,VALID,0,VALID,87.0303,VALID,0,VALID,24.893,VALID,354,VALID,0.336719,
2009-07-18, 00:31:05,VALID,1005.58,VALID,0,VALID,86.5115,VALID,0,VALID,24.8911,VALID,87,VALID,0.261719,
2009-07-18, 00:32:05,VALID,1005.58,VALID,0,VALID,86.3437,VALID,0,VALID,24.9514,VALID,74,VALID,0.398047,
2009-07-18, 00:33:05,VALID,1005.57,VALID,0,VALID,86.3132,VALID,0,VALID,24.9495,VALID,74,VALID,0.24375,
2009-07-18, 00:34:05,VALID,1005.57,VALID,0,VALID,85.9012,VALID,0,VALID,25.0098,VALID,80,VALID,0.334375,
2009-07-18, 00:35:05,VALID,1005.57,VALID,0,VALID,85.6342,VALID,0,VALID,25.0488,VALID,80,VALID,0.278125,
2009-07-18, 00:36:05,VALID,1005.53,VALID,0,VALID,85.2985,VALID,0,VALID,25.0877,VALID,89,VALID,1.13477,
2009-07-18, 00:37:05,VALID,1005.54,VALID,0,VALID,85.0544,VALID,0,VALID,25.1832,VALID,66,VALID,0.552734,
2009-07-18, 00:38:05,VALID,1005.53,VALID,0,VALID,85.3138,VALID,0,VALID,25.224,VALID,58,VALID,0.444922,
2009-07-18, 00:39:05,VALID,1005.5,VALID,0,VALID,86.1072,VALID,0,VALID,25.1637,VALID,40,VALID,0.556641,
2009-07-18, 00:40:05,VALID,1005.48,VALID,0,VALID,86.2903,VALID,0,VALID,25.0858,VALID,16,VALID,0.602734,
2009-07-18, 00:41:05,VALID,1005.5,VALID,0,VALID,86.8701,VALID,0,VALID,25.0274,VALID,16,VALID,0.578906,
2009-07-18, 00:42:05,VALID,1005.47,VALID,0,VALID,87.6101,VALID,0,VALID,24.9514,VALID,16,VALID,0.601953,
2009-07-18, 00:43:05,VALID,1005.42,VALID,0,VALID,86.8624,VALID,0,VALID,24.8697,VALID,26,VALID,0.53125,
2009-07-18, 00:44:05,VALID,1005.41,VALID,0,VALID,87.1218,VALID,0,VALID,24.9106,VALID,347,VALID,0.510938,
2009-07-18, 00:45:05,VALID,1005.42,VALID,0,VALID,86.9769,VALID,0,VALID,24.8911,VALID,357,VALID,0.448438,
2009-07-18, 00:46:05,VALID,1005.4,VALID,0,VALID,86.6336,VALID,0,VALID,24.8892,VALID,18,VALID,0.916016,
2009-07-18, 00:47:05,VALID,1005.39,VALID,0,VALID,87.0684,VALID,0,VALID,24.9671,VALID,20,VALID,0.505859,
2009-07-18, 00:48:05,VALID,1005.38,VALID,0,VALID,86.7938,VALID,0,VALID,24.9476,VALID,10,VALID,0.620313,
2009-07-18, 00:49:05,VALID,1005.36,VALID,0,VALID,86.6641,VALID,0,VALID,24.9087,VALID,9,VALID,0.476563,
2009-07-18, 00:50:05,VALID,1005.35,VALID,0,VALID,86.7938,VALID,0.100563,VALID,24.8679,VALID,3,VALID,0.528125,
2009-07-18, 00:51:05,VALID,1005.35,VALID,0,VALID,87.2896,VALID,0,VALID,24.9106,VALID,3,VALID,0.255469,
2009-07-18, 00:52:05,VALID,1005.3,VALID,0,VALID,87.282,VALID,0.100563,VALID,24.8697,VALID,7,VALID,0.635938,
2009-07-18, 00:53:05,VALID,1005.32,VALID,0,VALID,86.9769,VALID,0,VALID,24.8716,VALID,7,VALID,0.514844,
2009-07-18, 00:54:05,VALID,1005.28,VALID,0,VALID,87.2057,VALID,0,VALID,24.9106,VALID,15,VALID,0.416406,
2009-07-18, 00:55:05,VALID,1005.28,VALID,0,VALID,87.427,VALID,0,VALID,24.8697,VALID,15,VALID,0.589453,
2009-07-18, 00:56:05,VALID,1005.24,VALID,0,VALID,87.5109,VALID,0,VALID,24.8522,VALID,20,VALID,0.541016,
2009-07-18, 00:57:05,VALID,1005.24,VALID,0,VALID,86.9769,VALID,0,VALID,24.8522,VALID,74,VALID,0.810938,
2009-07-18, 00:58:05,VALID,1005.21,VALID,0,VALID,87.0226,VALID,0,VALID,24.9087,VALID,44,VALID,0.605859,
2009-07-18, 00:59:05,VALID,1005.22,VALID,0,VALID,87.015,VALID,0,VALID,24.9476,VALID,17,VALID,0.519922,
2009-07-18, 01:00:05,VALID,1005.18,VALID,0,VALID,86.8243,VALID,0,VALID,24.9476,VALID,17,VALID,0.446875,
2009-07-18, 01:01:05,VALID,1005.2,VALID,0,VALID,86.5802,VALID,0,VALID,24.9671,VALID,17,VALID,0.435547,
2009-07-18, 01:02:05,VALID,1005.18,VALID,0,VALID,86.6488,VALID,0.100563,VALID,24.9671,VALID,16,VALID,0.703125,
2009-07-18, 01:03:05,VALID,1005.16,VALID,0,VALID,86.7099,VALID,0,VALID,25.0079,VALID,19,VALID,0.469922,
2009-07-18, 01:04:05,VALID,1005.14,VALID,0,VALID,86.6336,VALID,0,VALID,25.0079,VALID,27,VALID,0.152344,
2009-07-18, 01:05:05,VALID,1005.12,VALID,0,VALID,86.6259,VALID,0,VALID,25.0079,VALID,27,VALID,0.103516,
2009-07-18, 01:06:05,VALID,1005.11,VALID,0,VALID,86.7938,VALID,0,VALID,24.9866,VALID,17,VALID,0.799609,
2009-07-18, 01:07:05,VALID,1005.13,VALID,0,VALID,86.2521,VALID,0,VALID,25.006,VALID,26,VALID,0.537109,
2009-07-18, 01:08:05,VALID,1005.1,VALID,0,VALID,86.2598,VALID,0.100563,VALID,25.0644,VALID,27,VALID,0.388672,
2009-07-18, 01:09:05,VALID,1005.1,VALID,0,VALID,85.9927,VALID,0,VALID,25.0839,VALID,27,VALID,0.381641,
2009-07-18, 01:10:05,VALID,1005.09,VALID,0,VALID,86.3742,VALID,0.100563,VALID,25.1034,VALID,27,VALID,0.187109,
2009-07-18, 01:11:05,VALID,1005.1,VALID,0,VALID,86.6107,VALID,0,VALID,25.0644,VALID,27,VALID,0.204688,
2009-07-18, 01:12:05,VALID,1005.07,VALID,0,VALID,86.6793,VALID,0,VALID,25.045,VALID,27,VALID,0.444531,
2009-07-18, 01:13:05,VALID,1005.06,VALID,0,VALID,86.7327,VALID,0,VALID,25.0255,VALID,27,VALID,0.183594,
2009-07-18, 01:14:05,VALID,1005.05,VALID,0,VALID,86.336,VALID,0,VALID,25.045,VALID,75,VALID,0.583203,
2009-07-18, 01:15:05,VALID,1005.07,VALID,0,VALID,86.3589,VALID,0,VALID,25.0858,VALID,26,VALID,0.676562,
2009-07-18, 01:16:05,VALID,1005.06,VALID,0,VALID,86.3589,VALID,0,VALID,25.1053,VALID,59,VALID,0.311719,
2009-07-18, 01:17:05,VALID,1005.04,VALID,0,VALID,86.1148,VALID,0,VALID,25.0839,VALID,53,VALID,0.503906,
2009-07-18, 01:18:05,VALID,1005.02,VALID,0,VALID,85.8859,VALID,0,VALID,25.1229,VALID,76,VALID,0.441406,
2009-07-18, 01:19:05,VALID,1005,VALID,0,VALID,85.7486,VALID,0,VALID,25.1423,VALID,64,VALID,0.205469,
2009-07-18, 01:20:05,VALID,1005.01,VALID,0,VALID,85.3672,VALID,0,VALID,25.1832,VALID,59,VALID,0.775781,
2009-07-18, 01:21:05,VALID,1004.98,VALID,0,VALID,85.4969,VALID,0,VALID,25.2202,VALID,31,VALID,0.578125,
2009-07-18, 01:22:05,VALID,1004.98,VALID,0,VALID,85.6647,VALID,0,VALID,25.2202,VALID,31,VALID,0,
2009-07-18, 01:23:05,VALID,1004.95,VALID,0,VALID,84.9094,VALID,0,VALID,25.2202,VALID,64,VALID,0.6125,
2009-07-18, 01:24:05,VALID,1004.95,VALID,0,VALID,84.6653,VALID,0,VALID,25.3,VALID,53,VALID,0.919141,
2009-07-18, 01:25:05,VALID,1004.95,VALID,0,VALID,84.0703,VALID,0.100563,VALID,25.339,VALID,71,VALID,0.847266,
2009-07-18, 01:26:05,VALID,1004.96,VALID,0,VALID,84.8026,VALID,0,VALID,25.376,VALID,51,VALID,0.558984,
2009-07-18, 01:27:05,VALID,1004.95,VALID,0,VALID,84.94,VALID,0.100563,VALID,25.3176,VALID,26,VALID,0.488281,
2009-07-18, 01:28:05,VALID,1004.95,VALID,0,VALID,85.7181,VALID,0,VALID,25.3,VALID,28,VALID,0.476563,
2009-07-18, 01:29:05,VALID,1004.93,VALID,0,VALID,85.8402,VALID,0.100563,VALID,25.2007,VALID,18,VALID,0.331641,
2009-07-18, 01:30:05,VALID,1004.96,VALID,0,VALID,86.0919,VALID,0,VALID,25.1618,VALID,18,VALID,0.241406,
2009-07-18, 01:31:05,VALID,1004.96,VALID,0,VALID,86.1301,VALID,0,VALID,25.1423,VALID,22,VALID,0.765234,
2009-07-18, 01:32:05,VALID,1004.96,VALID,0,VALID,85.9851,VALID,0.100563,VALID,25.1229,VALID,27,VALID,0.837891,
2009-07-18, 01:33:05,VALID,1004.96,VALID,0,VALID,86.4581,VALID,0.100563,VALID,25.082,VALID,15,VALID,0.760547,
2009-07-18, 01:34:05,VALID,1004.99,VALID,0,VALID,86.7404,VALID,0.100563,VALID,25.0644,VALID,38,VALID,0.235547,
2009-07-18, 01:35:05,VALID,1004.98,VALID,0,VALID,86.7785,VALID,0,VALID,25.0255,VALID,37,VALID,0.294531,
2009-07-18, 01:36:05,VALID,1004.97,VALID,0,VALID,86.9387,VALID,0,VALID,24.9866,VALID,37,VALID,0.430469,
2009-07-18, 01:37:05,VALID,1005,VALID,0,VALID,86.8395,VALID,0,VALID,24.9671,VALID,33,VALID,0.420312,
2009-07-18, 01:38:05,VALID,1005,VALID,0,VALID,86.7938,VALID,0,VALID,24.9263,VALID,33,VALID,0.372266,
2009-07-18, 01:39:05,VALID,1004.98,VALID,0,VALID,86.5115,VALID,0,VALID,24.9885,VALID,29,VALID,0.147656,
2009-07-18, 01:40:05,VALID,1004.97,VALID,0,VALID,86.42,VALID,0,VALID,24.9866,VALID,21,VALID,0.573438,
2009-07-18, 01:41:05,VALID,1004.99,VALID,0,VALID,86.5496,VALID,0,VALID,25.0469,VALID,22,VALID,0.255078,
2009-07-18, 01:42:05,VALID,1005.01,VALID,0,VALID,86.2674,VALID,0,VALID,25.0255,VALID,31,VALID,0.303906,
2009-07-18, 01:43:05,VALID,1004.98,VALID,0,VALID,86.336,VALID,0,VALID,25.045,VALID,30,VALID,0.423828,
2009-07-18, 01:44:05,VALID,1004.98,VALID,0,VALID,86.3589,VALID,0,VALID,25.045,VALID,29,VALID,0.329297,
2009-07-18, 01:45:04,VALID,1005,VALID,0,VALID,86.2903,VALID,0,VALID,25.0469,VALID,19,VALID,0.814062,
2009-07-18, 01:46:04,VALID,1005,VALID,0,VALID,86.2979,VALID,0,VALID,25.045,VALID,11,VALID,0.601563,
2009-07-18, 01:47:04,VALID,1004.99,VALID,0,VALID,86.2674,VALID,0,VALID,25.045,VALID,36,VALID,0.73125,
2009-07-18, 01:48:04,VALID,1005.03,VALID,0,VALID,85.7868,VALID,0,VALID,25.0469,VALID,28,VALID,0.869922,
2009-07-18, 01:49:04,VALID,1005.02,VALID,0,VALID,85.3824,VALID,0,VALID,25.1229,VALID,27,VALID,0.896484,
2009-07-18, 01:50:04,VALID,1005.03,VALID,0,VALID,84.8408,VALID,0,VALID,25.1813,VALID,26,VALID,1.1832,
2009-07-18, 01:51:04,VALID,1005.02,VALID,0,VALID,85.0773,VALID,0,VALID,25.2397,VALID,35,VALID,0.503125,
2009-07-18, 01:52:04,VALID,1005.03,VALID,0,VALID,84.4899,VALID,0,VALID,25.2806,VALID,22,VALID,0.887109,
2009-07-18, 01:53:04,VALID,1004.99,VALID,0,VALID,84.2534,VALID,0,VALID,25.2981,VALID,352,VALID,0.723828,
2009-07-18, 01:54:04,VALID,1005,VALID,0,VALID,83.6888,VALID,0.100563,VALID,25.3584,VALID,36,VALID,0.700391,
2009-07-18, 01:55:04,VALID,1005,VALID,0,VALID,83.788,VALID,0,VALID,25.376,VALID,27,VALID,0.701172,
2009-07-18, 01:56:04,VALID,1004.99,VALID,0,VALID,83.4981,VALID,0,VALID,25.4169,VALID,59,VALID,1.05625,
2009-07-18, 01:57:04,VALID,1005,VALID,0,VALID,83.0556,VALID,0,VALID,25.4558,VALID,5,VALID,0.776953,
2009-07-18, 01:58:04,VALID,1004.98,VALID,0,VALID,83.5973,VALID,0,VALID,25.4734,VALID,5,VALID,0.266016,
2009-07-18, 01:59:04,VALID,1004.98,VALID,0,VALID,83.6202,VALID,0,VALID,25.4753,VALID,35,VALID,0.34375,
2009-07-18, 02:00:04,VALID,1004.98,VALID,0,VALID,83.6202,VALID,0,VALID,25.4753,VALID,15,VALID,0.350391,
2009-07-18, 02:01:04,VALID,1004.99,VALID,0,VALID,83.9635,VALID,0,VALID,25.4539,VALID,17,VALID,0.307813,
2009-07-18, 02:02:04,VALID,1004.96,VALID,0,VALID,84.0016,VALID,0,VALID,25.4363,VALID,18,VALID,0.341016,
2009-07-18, 02:03:04,VALID,1004.96,VALID,0,VALID,84.6501,VALID,0,VALID,25.3974,VALID,31,VALID,0.239844,
2009-07-18, 02:04:04,VALID,1004.98,VALID,0,VALID,84.6348,VALID,0,VALID,25.3584,VALID,26,VALID,0.246094,
2009-07-18, 02:05:04,VALID,1004.96,VALID,0,VALID,84.8179,VALID,0,VALID,25.2981,VALID,26,VALID,0.195313,
2009-07-18, 02:06:04,VALID,1004.96,VALID,0,VALID,85.4053,VALID,0,VALID,25.2981,VALID,26,VALID,0.201953,
2009-07-18, 02:07:04,VALID,1005,VALID,0,VALID,85.0696,VALID,0.100563,VALID,25.2378,VALID,28,VALID,0.369141,
2009-07-18, 02:08:04,VALID,1004.97,VALID,0,VALID,84.7874,VALID,0,VALID,25.2806,VALID,61,VALID,0.430469,
2009-07-18, 02:09:04,VALID,1004.95,VALID,0,VALID,85.0086,VALID,0,VALID,25.2786,VALID,71,VALID,0.385156,
2009-07-18, 02:10:04,VALID,1004.97,VALID,0,VALID,85.2909,VALID,0,VALID,25.2397,VALID,71,VALID,0.274609,
2009-07-18, 02:11:04,VALID,1004.94,VALID,0,VALID,84.9781,VALID,0,VALID,25.2397,VALID,99,VALID,0.907031,
2009-07-18, 02:12:04,VALID,1004.96,VALID,0,VALID,85.0925,VALID,0,VALID,25.2397,VALID,75,VALID,0.390234,
2009-07-18, 02:13:04,VALID,1004.95,VALID,0,VALID,84.856,VALID,0,VALID,25.2592,VALID,75,VALID,0.279297,
2009-07-18, 02:14:04,VALID,1004.95,VALID,0,VALID,84.9781,VALID,0,VALID,25.2806,VALID,75,VALID,0.139844,
2009-07-18, 02:15:04,VALID,1004.98,VALID,0,VALID,84.9934,VALID,0,VALID,25.2611,VALID,75,VALID,0.342969,
2009-07-18, 02:16:04,VALID,1004.98,VALID,0,VALID,84.9171,VALID,0,VALID,25.2786,VALID,74,VALID,0.251172,
2009-07-18, 02:17:04,VALID,1004.97,VALID,0,VALID,84.8713,VALID,0,VALID,25.3,VALID,73,VALID,0.282813,
2009-07-18, 02:18:04,VALID,1004.97,VALID,0,VALID,84.9781,VALID,0,VALID,25.2592,VALID,52,VALID,0.431641,
2009-07-18, 02:19:04,VALID,1004.96,VALID,0,VALID,84.7645,VALID,0.100563,VALID,25.2592,VALID,20,VALID,0.412109,
2009-07-18, 02:20:04,VALID,1004.94,VALID,0,VALID,84.4441,VALID,0,VALID,25.2981,VALID,31,VALID,0.311328,
2009-07-18, 02:21:04,VALID,1004.94,VALID,0,VALID,84.2457,VALID,0,VALID,25.3565,VALID,94,VALID,0.667578,
2009-07-18, 02:22:04,VALID,1004.95,VALID,0,VALID,84.0855,VALID,0,VALID,25.376,VALID,84,VALID,0.379297,
2009-07-18, 02:23:04,VALID,1004.97,VALID,0,VALID,84.2076,VALID,0,VALID,25.376,VALID,75,VALID,0.429297,
2009-07-18, 02:24:04,VALID,1004.96,VALID,0,VALID,83.8719,VALID,0,VALID,25.3779,VALID,98,VALID,0.938281,
2009-07-18, 02:25:04,VALID,1004.96,VALID,0,VALID,84.0703,VALID,0,VALID,25.376,VALID,88,VALID,0.246484,
2009-07-18, 02:26:04,VALID,1004.95,VALID,0,VALID,83.9406,VALID,0,VALID,25.376,VALID,88,VALID,0.25,
2009-07-18, 02:27:04,VALID,1004.96,VALID,0,VALID,84.0474,VALID,0,VALID,25.376,VALID,88,VALID,0.470703,
2009-07-18, 02:28:04,VALID,1004.96,VALID,0,VALID,84.1313,VALID,0,VALID,25.3565,VALID,87,VALID,0.172266,
2009-07-18, 02:29:04,VALID,1004.94,VALID,0,VALID,84.3449,VALID,0,VALID,25.337,VALID,70,VALID,0.364844,
2009-07-18, 02:30:04,VALID,1004.97,VALID,0,VALID,84.3754,VALID,0,VALID,25.337,VALID,69,VALID,0.164453,
2009-07-18, 02:31:04,VALID,1004.99,VALID,0,VALID,84.1847,VALID,0,VALID,25.3195,VALID,95,VALID,0.4125,
2009-07-18, 02:32:04,VALID,1004.99,VALID,0,VALID,84.2381,VALID,0,VALID,25.3176,VALID,95,VALID,0.468359,
2009-07-18, 02:33:04,VALID,1004.97,VALID,0,VALID,84.1389,VALID,0,VALID,25.2981,VALID,95,VALID,0.364844,
2009-07-18, 02:34:04,VALID,1004.98,VALID,0,VALID,84.2381,VALID,0,VALID,25.339,VALID,95,VALID,0.135547,
2009-07-18, 02:35:04,VALID,1004.97,VALID,0,VALID,84.1542,VALID,0,VALID,25.339,VALID,95,VALID,0.519141,
2009-07-18, 02:36:04,VALID,1005.01,VALID,0,VALID,84.322,VALID,0,VALID,25.337,VALID,92,VALID,0.562891,
2009-07-18, 02:37:04,VALID,1004.97,VALID,0,VALID,84.1847,VALID,0,VALID,25.337,VALID,78,VALID,0.422266,
2009-07-18, 02:38:04,VALID,1004.98,VALID,0,VALID,84.3373,VALID,0,VALID,25.3584,VALID,78,VALID,0.285547,
2009-07-18, 02:39:04,VALID,1004.96,VALID,0,VALID,84.3068,VALID,0,VALID,25.339,VALID,77,VALID,0.294922,
2009-07-18, 02:40:04,VALID,1004.97,VALID,0,VALID,84.4441,VALID,0,VALID,25.3176,VALID,52,VALID,0.203516,
2009-07-18, 02:41:04,VALID,1004.95,VALID,0,VALID,84.528,VALID,0,VALID,25.3195,VALID,14,VALID,0.698438,
2009-07-18, 02:42:04,VALID,1004.95,VALID,0,VALID,85.3443,VALID,0,VALID,25.2806,VALID,11,VALID,0.729688,
2009-07-18, 02:43:04,VALID,1004.92,VALID,0,VALID,85.062,VALID,0,VALID,25.2786,VALID,35,VALID,0.577734,
2009-07-18, 02:44:04,VALID,1004.94,VALID,0,VALID,85.5045,VALID,0,VALID,25.2786,VALID,28,VALID,0.393359,
2009-07-18, 02:45:04,VALID,1004.96,VALID,0,VALID,85.9546,VALID,0,VALID,25.2611,VALID,28,VALID,0.228906,
2009-07-18, 02:46:04,VALID,1004.97,VALID,0,VALID,85.9622,VALID,0,VALID,25.2007,VALID,28,VALID,0.162109,
2009-07-18, 02:47:04,VALID,1004.98,VALID,0,VALID,86.214,VALID,0,VALID,25.1832,VALID,31,VALID,0.415234,
2009-07-18, 02:48:04,VALID,1004.97,VALID,0,VALID,86.275,VALID,0,VALID,25.1442,VALID,31,VALID,0.206641,
2009-07-18, 02:49:04,VALID,1005.01,VALID,0,VALID,86.6031,VALID,0,VALID,25.1248,VALID,31,VALID,0.374609,
2009-07-18, 02:50:04,VALID,1005.01,VALID,0,VALID,86.5878,VALID,0,VALID,25.0644,VALID,57,VALID,0.513672,
2009-07-18, 02:51:04,VALID,1005.02,VALID,0,VALID,86.6793,VALID,0,VALID,25.0663,VALID,62,VALID,0.319531,
2009-07-18, 02:52:04,VALID,1005.01,VALID,0,VALID,86.8777,VALID,0,VALID,25.0663,VALID,62,VALID,0.378125,
2009-07-18, 02:53:04,VALID,1005.01,VALID,0,VALID,86.5344,VALID,0,VALID,25.0469,VALID,62,VALID,0.264453,
2009-07-18, 02:54:04,VALID,1005.01,VALID,0,VALID,86.7404,VALID,0,VALID,25.0255,VALID,39,VALID,0.173438,
2009-07-18, 02:55:04,VALID,1005.03,VALID,0,VALID,86.9692,VALID,0,VALID,25.0255,VALID,39,VALID,0.222656,
2009-07-18, 02:56:04,VALID,1004.98,VALID,0,VALID,87.1676,VALID,0,VALID,24.9866,VALID,39,VALID,0.230859,
2009-07-18, 02:57:04,VALID,1005.03,VALID,0,VALID,87.4956,VALID,0,VALID,24.9671,VALID,39,VALID,0.269922,
2009-07-18, 02:58:04,VALID,1005.03,VALID,0,VALID,87.9381,VALID,0,VALID,24.9495,VALID,42,VALID,0.361719,
2009-07-18, 02:59:04,VALID,1005,VALID,0,VALID,88.0373,VALID,0,VALID,24.9087,VALID,49,VALID,0.473047,
2009-07-18, 03:00:04,VALID,1005.02,VALID,0,VALID,88.4264,VALID,0,VALID,24.8892,VALID,30,VALID,0.409375,
2009-07-18, 03:01:04,VALID,1005.03,VALID,0,VALID,88.2127,VALID,0,VALID,24.8503,VALID,21,VALID,0.915625,
2009-07-18, 03:02:04,VALID,1004.99,VALID,0,VALID,88.2204,VALID,0,VALID,24.8522,VALID,18,VALID,0.908984,
2009-07-18, 03:03:04,VALID,1005.01,VALID,0,VALID,87.6329,VALID,0,VALID,24.8911,VALID,46,VALID,0.834766,
2009-07-18, 03:04:04,VALID,1004.99,VALID,0,VALID,88.1059,VALID,0,VALID,24.9282,VALID,30,VALID,0.486719,
2009-07-18, 03:05:04,VALID,1004.96,VALID,0,VALID,88.2967,VALID,0,VALID,24.8892,VALID,30,VALID,0.410547,
2009-07-18, 03:06:04,VALID,1004.96,VALID,0,VALID,88.8459,VALID,0,VALID,24.8522,VALID,30,VALID,0.4125,
2009-07-18, 03:07:04,VALID,1004.98,VALID,0,VALID,88.5255,VALID,0,VALID,24.7937,VALID,30,VALID,0.734375,
2009-07-18, 03:08:04,VALID,1004.94,VALID,0,VALID,88.8993,VALID,0,VALID,24.8113,VALID,25,VALID,0.467578,
2009-07-18, 03:09:04,VALID,1004.94,VALID,0,VALID,88.7315,VALID,0,VALID,24.7919,VALID,29,VALID,0.834766,
2009-07-18, 03:10:04,VALID,1004.92,VALID,0,VALID,88.6323,VALID,0,VALID,24.7937,VALID,9,VALID,0.728516,
2009-07-18, 03:11:04,VALID,1004.91,VALID,0,VALID,88.4111,VALID,0,VALID,24.7919,VALID,3,VALID,0.464453,
2009-07-18, 03:12:04,VALID,1004.92,VALID,0,VALID,88.6018,VALID,0,VALID,24.8308,VALID,15,VALID,0.466016,
2009-07-18, 03:13:04,VALID,1004.92,VALID,0,VALID,88.5942,VALID,0,VALID,24.8327,VALID,19,VALID,0.791797,
2009-07-18, 03:14:04,VALID,1004.9,VALID,0,VALID,88.4645,VALID,0.100563,VALID,24.8132,VALID,8,VALID,0.512891,
2009-07-18, 03:15:04,VALID,1004.91,VALID,0,VALID,88.6171,VALID,0.100563,VALID,24.8113,VALID,28,VALID,0.556641,
2009-07-18, 03:16:04,VALID,1004.89,VALID,0,VALID,88.907,VALID,0,VALID,24.7724,VALID,37,VALID,0.458984,
2009-07-18, 03:17:04,VALID,1004.92,VALID,0,VALID,89.2426,VALID,0.100563,VALID,24.7724,VALID,32,VALID,0.351953,
2009-07-18, 03:18:04,VALID,1004.89,VALID,0,VALID,89.1282,VALID,0,VALID,24.7761,VALID,21,VALID,0.498828,
2009-07-18, 03:19:04,VALID,1004.87,VALID,0,VALID,88.8841,VALID,0.100563,VALID,24.7529,VALID,45,VALID,0.645312,
2009-07-18, 03:20:04,VALID,1004.92,VALID,0,VALID,88.5408,VALID,0,VALID,24.8113,VALID,37,VALID,0.920703,
2009-07-18, 03:21:04,VALID,1004.87,VALID,0,VALID,88.4111,VALID,0,VALID,24.8697,VALID,49,VALID,0.708594,
2009-07-18, 03:22:04,VALID,1004.89,VALID,0,VALID,88.5866,VALID,0,VALID,24.9106,VALID,344,VALID,0.614453,
2009-07-18, 03:23:04,VALID,1004.91,VALID,0,VALID,88.6934,VALID,0,VALID,24.8503,VALID,360,VALID,0.614844,
2009-07-18, 03:24:04,VALID,1004.92,VALID,0,VALID,88.7086,VALID,0.100563,VALID,24.8697,VALID,46,VALID,0.842188,
2009-07-18, 03:25:04,VALID,1004.92,VALID,0,VALID,88.64,VALID,0,VALID,24.8503,VALID,2,VALID,0.878125,
2009-07-18, 03:26:04,VALID,1004.93,VALID,0,VALID,88.6781,VALID,0,VALID,24.9106,VALID,17,VALID,0.791797,
2009-07-18, 03:27:04,VALID,1004.93,VALID,0,VALID,88.6705,VALID,0,VALID,24.9087,VALID,22,VALID,0.852734,
2009-07-18, 03:28:04,VALID,1004.92,VALID,0,VALID,88.4416,VALID,0,VALID,24.8892,VALID,7,VALID,1.22773,
2009-07-18, 03:29:04,VALID,1004.94,VALID,0,VALID,88.5026,VALID,0,VALID,24.9457,VALID,16,VALID,0.959766,
2009-07-18, 03:30:04,VALID,1004.95,VALID,0,VALID,88.1975,VALID,0.100563,VALID,24.9866,VALID,61,VALID,0.973437,
2009-07-18, 03:31:04,VALID,1004.96,VALID,0,VALID,88.2585,VALID,0.100563,VALID,25.006,VALID,8,VALID,0.403125,
2009-07-18, 03:32:04,VALID,1004.93,VALID,0,VALID,88.3043,VALID,0,VALID,24.9866,VALID,39,VALID,0.709375,
2009-07-18, 03:33:04,VALID,1004.97,VALID,0,VALID,88.6018,VALID,0,VALID,24.9671,VALID,26,VALID,0.489453,
2009-07-18, 03:34:04,VALID,1004.95,VALID,0,VALID,88.1899,VALID,0,VALID,24.9866,VALID,15,VALID,0.845703,
2009-07-18, 03:35:04,VALID,1004.93,VALID,0,VALID,87.8237,VALID,0.100563,VALID,25.0255,VALID,34,VALID,1.30898,
2009-07-18, 03:36:04,VALID,1004.93,VALID,0,VALID,87.6253,VALID,0,VALID,25.1015,VALID,12,VALID,0.917188,
2009-07-18, 03:37:04,VALID,1004.9,VALID,0,VALID,87.488,VALID,0.100563,VALID,25.1423,VALID,33,VALID,0.824609,
2009-07-18, 03:38:04,VALID,1004.95,VALID,0,VALID,87.282,VALID,0,VALID,25.1423,VALID,18,VALID,1.07695,
2009-07-18, 03:39:04,VALID,1004.93,VALID,0,VALID,87.3354,VALID,0.100563,VALID,25.1618,VALID,64,VALID,0.464844,
2009-07-18, 03:40:04,VALID,1004.92,VALID,0,VALID,87.5338,VALID,0,VALID,25.1423,VALID,52,VALID,0.645703,
2009-07-18, 03:41:04,VALID,1004.92,VALID,0,VALID,87.6711,VALID,0,VALID,25.1248,VALID,50,VALID,0.289844,
2009-07-18, 03:42:04,VALID,1004.89,VALID,0,VALID,87.9076,VALID,0.100563,VALID,25.0644,VALID,50,VALID,0.318359,
2009-07-18, 03:43:04,VALID,1004.92,VALID,0,VALID,88.1899,VALID,0,VALID,25.0274,VALID,50,VALID,0.144922,
2009-07-18, 03:44:04,VALID,1004.9,VALID,0,VALID,88.289,VALID,0.100563,VALID,25.0079,VALID,102,VALID,0.210938,
2009-07-18, 03:45:04,VALID,1004.9,VALID,0,VALID,88.6018,VALID,0,VALID,24.9671,VALID,102,VALID,0.259766,